SCP
2 2 2 2 3 3 3 2 2 1 1 2 3 3 3 3 3 3 3 2 1 1 1 1 1 2 2 2 2 1 1 1 1 1 1 1 1 1
2 2 2 2 3 3 3 2 2 1 1 2 2 3 3 3 3 3 2 1 1 1 0 0 1 1 1 1 1 1 1 1 1 1 1 1 1 1
1 1 1 2 3 3 3 2 2 2 1 1 2 2 2 2 2 2 2 1 1 1 0 0 0 0 1 1 1 1 0 0 0 0 0 1 1 1
1 1 1 1 2 2 3 3 2 2 2 1 1 2 2 2 2 2 2 1 1 1 0 0 0 0 0 0 0 0 0 0 0 0 0 1 1 1
1 1 1 1 2 2 3 3 3 2 2 1 1 1 2 2 2 2 2 2 1 1 0 0 0 0 0 0 0 0 0 0 0 0 0 0 1 1
1 1 1 1 1 2 2 3 3 2 2 1 1 1 1 2 1 1 2 2 2 1 1 0 0 0 0 0 0 0 0 0 0 0 0 0 0 0
1 1 1 1 1 1 2 2 2 2 2 1 1 1 1 1 1 1 1 2 1 1 1 0 0 0 0 0 0 0 0 0 0 0 0 0 0 0
1 1 1 1 1 1 1 1 1 2 1 1 1 1 1 1 1 1 1 1 1 1 1 0 0 0 0 0 0 0 0 0 0 0 0 0 0 0
1 1 1 1 1 1 1 1 1 1 1 1 1 1 1 1 1 1 1 1 1 1 1 0 0 0 0 0 0 0 0 0 0 0 0 0 0 0
1 1 1 1 1 1 1 1 1 1 1 1 1 0 1 1 1 1 1 1 1 1 1 0 0 0 0 0 0 0 0 0 0 0 0 0 0 0
1 1 1 1 0 0 1 1 2 1 1 0 0 0 0 1 1 1 1 0 0 0 0 0 0 0 0 0 0 0 0 0 0 0 0 0 0 0
1 1 1 0 0 0 1 1 1 2 1 0 0 0 0 0 1 1 1 0 0 0 0 0 0 0 0 0 0 0 0 0 0 0 0 0 0 0
1 1 0 0 0 0 0 1 1 1 1 0 0 0 0 0 0 1 1 0 0 0 0 0 0 0 0 0 0 0 0 0 0 0 0 0 0 0
0 0 0 0 0 0 0 0 1 1 1 1 0 0 1 1 1 1 1 1 1 0 0 0 0 0 0 0 0 0 0 0 0 0 0 0 0 0
0 0 0 0 0 0 0 0 0 1 1 1 1 1 1 1 1 0 0 1 1 0 0 1 1 0 0 0 0 0 0 0 0 0 0 0 0 0
0 0 0 0 0 0 0 0 0 1 1 1 1 1 1 1 0 0 0 0 0 0 0 0 1 0 0 0 0 0 0 0 0 0 0 0 0 0
0 0 0 0 0 0 0 0 0 0 1 1 1 1 1 0 0 0 0 0 0 0 0 0 0 0 0 0 0 0 0 0 0 0 0 0 0 0
0 0 0 0 0 0 0 0 0 0 1 1 1 1 0 0 0 0 0 0 0 0 0 0 0 0 0 0 0 0 0 0 0 0 0 0 0 0
0 0 0 0 0 0 0 0 0 1 1 1 1 0 0 0 0 0 0 0 0 0 0 0 0 0 0 0 0 0 0 0 0 0 0 0 0 0
0 0 0 0 1 1 0 0 0 1 1 1 1 1 0 1 1 1 0 0 0 0 0 0 0 0 0 0 0 0 0 0 0 0 0 0 0 0
0 0 1 1 1 1 1 1 1 1 1 1 1 1 1 1 1 1 0 0 0 0 0 0 0 0 0 0 0 0 0 0 0 0 0 0 0 0
1 1 1 1 1 1 1 1 1 1 1 1 1 1 1 1 1 0 0 0 0 0 0 0 0 0 0 0 0 0 0 0 0 0 0 0 0 0
1 1 1 1 1 1 1 1 1 1 1 1 0 0 0 0 0 0 0 0 0 0 0 0 0 0 0 0 0 0 0 0 0 0 0 0 0 0
Wind_Speed
3 3 2 2 2 2 2 2 2 4 3 3 1 1 2 2 4 3 3 7 7 8 8 8 8 8 8 8 7 7 7 8 8 9 9 10 11 11
2 2 3 2 2 2 2 2 2 3 4 2 2 2 2 3 3 3 3 6 8 9 10 9 9 8 8 8 8 8 8 8 9 9 9 10 11 11
3 2 2 2 2 2 2 2 2 2 4 4 3 2 3 3 3 3 3 4 5 9 11 10 10 10 9 9 9 9 8 7 8 9 9 10 10 10
3 2 3 2 2 2 2 3 2 3 3 5 4 3 3 3 2 3 4 4 4 8 11 11 11 11 11 10 10 9 9 9 9 9 9 9 9 9
2 2 2 2 2 2 3 3 3 4 3 4 5 3 2 2 2 3 4 3 5 5 8 10 11 11 11 11 11 11 10 10 10 10 9 9 9 9
2 2 2 1 2 3 3 3 3 4 4 4 4 3 2 2 2 3 3 3 4 4 4 6 9 11 12 11 11 12 11 11 10 10 9 9 9 9
3 2 2 1 1 2 3 3 4 3 4 4 4 3 3 2 2 3 4 3 3 3 2 3 4 4 6 9 11 12 12 12 12 11 10 10 10 10
3 3 2 1 2 4 5 5 4 4 4 4 4 4 4 3 3 4 4 4 4 2 2 4 3 4 4 5 8 11 12 12 12 12 11 11 10 10
3 3 4 2 2 2 3 4 5 6 6 4 4 5 4 3 3 4 4 4 5 4 3 4 3 3 3 5 8 10 10 11 11 11 11 11 10 10
3 3 2 2 3 3 3 3 3 3 4 3 4 4 4 3 3 4 4 4 4 3 2 4 3 4 4 2 5 9 10 11 11 11 11 11 11 10
3 3 2 1 1 2 2 3 4 3 4 4 5 5 5 6 5 3 3 3 4 4 2 3 3 3 3 2 3 6 8 9 10 11 11 11 11 9
3 2 2 1 1 1 2 3 4 4 4 5 4 5 5 5 6 3 3 3 3 3 2 2 3 2 3 2 1 2 3 6 9 10 10 10 9 6
3 2 1 1 2 3 3 4 5 5 5 5 4 3 2 2 2 3 3 3 3 4 3 2 2 2 2 3 2 2 2 3 3 5 8 10 10 8
4 3 1 3 4 6 5 6 8 6 4 4 3 3 2 2 2 2 3 4 4 5 4 3 2 2 3 3 3 2 2 2 2 3 4 6 8 10
4 5 5 7 7 6 7 8 6 4 3 3 3 3 2 2 2 2 2 3 4 5 4 4 4 3 3 3 3 3 3 2 2 2 2 3 4 4
5 6 7 8 7 6 5 4 4 4 3 3 2 2 2 2 2 2 2 2 3 3 4 4 4 4 4 4 3 3 2 2 2 2 2 2 3 3
3 3 3 3 3 3 3 3 3 2 3 2 2 2 2 2 2 2 2 3 3 3 3 2 3 3 3 2 2 3 2 2 2 2 2 2 2 3
2 4 4 3 3 2 2 2 2 2 2 2 2 2 2 2 3 3 2 2 3 3 3 2 2 1 2 2 2 3 2 2 2 2 2 2 2 2
2 4 3 3 3 3 2 2 2 2 2 1 1 2 2 3 3 3 2 3 3 2 2 2 2 2 2 3 3 3 3 2 2 2 2 2 2 2
3 4 3 3 3 3 3 2 2 2 2 2 2 2 2 2 3 3 2 3 3 3 2 2 2 2 2 3 2 2 3 2 2 2 2 2 1 1
3 3 3 3 2 2 2 2 2 2 2 2 2 2 2 3 3 3 3 4 3 3 2 2 3 4 2 1 1 2 2 3 2 1 2 2 2 1
3 3 2 2 2 2 2 2 2 2 3 2 2 2 2 3 3 3 3 3 3 3 2 2 3 2 2 2 3 3 2 1 2 2 1 1 2 2
2 3 3 2 2 2 2 3 3 3 3 3 3 3 3 3 3 3 3 3 3 3 2 2 1 1 2 2 2 2 1 1 0 0 1 1 3 3
Wind_Direction
278 289 290 290 288 299 288 271 279 292 285 296 302 235 229 202 191 201 197 200 210 223 226 228 230 235 241 242 241 241 245 249 247 244 244 245 245 245
279 282 287 290 311 307 294 289 271 276 287 287 281 255 259 266 228 218 215 209 213 222 223 224 227 229 233 236 239 240 241 244 244 243 243 246 247 245
291 292 295 301 309 299 304 296 289 282 283 292 293 284 266 264 255 246 236 214 215 222 222 223 227 228 228 231 234 234 236 239 242 243 244 245 246 243
299 302 302 303 307 301 304 298 291 277 278 288 291 285 279 267 265 260 264 251 231 223 221 223 225 227 227 228 228 227 228 230 233 236 239 244 246 246
308 305 304 316 318 308 299 301 298 302 288 282 285 279 282 286 288 281 281 272 264 242 225 225 227 229 229 227 226 223 223 224 228 231 234 237 241 242
317 305 307 318 313 307 304 309 302 299 290 283 283 287 290 300 294 284 286 278 273 274 251 238 231 233 231 226 225 221 220 222 223 226 228 231 235 238
316 308 304 319 324 300 306 313 308 299 299 294 291 300 301 317 302 296 296 295 287 280 266 257 232 229 228 232 231 225 221 221 220 220 221 223 226 230
311 310 292 263 273 266 270 281 288 285 289 290 294 299 303 308 306 303 305 306 296 296 293 282 271 246 231 221 219 218 216 216 217 217 216 219 222 224
297 299 304 326 323 310 288 284 279 270 256 263 285 288 291 294 295 295 294 293 287 283 284 278 275 270 261 243 216 217 217 214 212 212 211 214 219 224
284 283 290 307 335 329 311 305 292 288 263 243 250 270 283 284 275 279 286 294 286 283 278 272 270 265 270 266 229 220 214 211 210 209 211 212 215 220
271 274 276 286 338 346 320 310 307 306 305 287 264 269 278 289 290 299 297 301 301 297 292 275 277 282 276 268 246 221 217 213 213 214 213 214 216 218
273 255 257 269 295 307 305 304 301 303 313 310 297 280 265 267 262 242 258 279 291 293 294 287 291 305 298 282 272 219 224 230 225 224 221 217 213 210
295 286 262 230 261 270 275 270 274 290 296 290 281 273 263 254 238 217 226 245 269 276 288 296 295 293 278 287 284 261 221 219 214 224 224 222 216 206
295 299 295 268 271 272 268 262 273 286 279 280 282 281 281 283 271 247 234 234 237 252 269 272 265 266 271 276 277 269 258 234 213 211 209 211 218 220
284 296 293 271 271 265 256 259 265 265 266 275 283 281 275 275 278 271 261 252 249 250 255 245 241 247 245 253 261 266 269 257 234 221 212 205 209 208
278 286 279 267 261 260 273 260 240 243 257 270 278 285 294 288 281 272 273 271 267 267 253 243 239 240 250 250 248 261 261 253 244 226 219 227 225 210
306 280 268 267 263 253 249 251 249 247 256 266 277 292 295 295 287 272 261 276 277 281 282 263 244 232 233 252 259 257 257 260 254 239 228 245 240 222
287 273 277 279 284 283 286 291 287 282 281 280 284 295 299 299 296 291 286 279 278 277 279 272 263 255 258 262 242 259 254 254 260 248 234 234 240 222
256 271 279 288 293 298 295 295 298 299 294 292 288 293 298 301 300 297 294 289 288 283 280 275 271 266 274 281 267 244 251 251 258 264 256 236 241 230
256 272 285 285 288 291 294 304 309 316 311 301 292 291 289 286 290 294 296 297 297 298 292 289 279 266 262 272 280 274 255 244 241 250 262 260 243 204
274 276 283 290 299 309 310 302 302 314 311 300 295 290 290 288 291 293 289 291 288 290 291 284 276 274 264 259 273 272 260 234 222 228 244 245 259 253
289 298 296 289 291 303 311 305 310 318 315 312 309 301 293 289 292 298 301 295 289 289 284 273 273 276 267 253 258 265 263 250 245 257 287 216 216 221
291 296 293 302 320 324 325 322 329 331 328 331 330 313 299 295 293 291 296 295 296 304 299 287 287 283 275 270 272 274 273 253 222 208 314 266 219 228